LiveATC.Net - Listen to live air traffic control over the Internet!


ICAO: KACY  IATA: ACY   Airport: Atlantic City International Airport
City: Atlantic City   State/Province: New Jersey
Country: United States   Continent: North America
KACY METAR Weather: KACY 282154Z 09008KT 10SM CLR 27/18 A3017 RMK AO2 SLP216 T02720178
KACY Flight Activity (FlightAware)
KACY Airport Info   (AirNav) (iFlightPlanner)
KACY VFR Sectional Chart   (iFlightPlanner) 
KACY IFR Low Chart   (iFlightPlanner) 
ZNY ATL86/ZDC SIE54
Feed Status: UP   Listeners: 0
Listen right in your browser - requires Flash (in browser, requires Flash)
Click here to listen with your own player (launches your MP3 player)
ZNY ATL86/ZDC SIE54 Audio Archives
FacilityFrequency
New York Center (Sector 86 Atlantic)133.500
Washington Center (Sector 59 Sea Isle Hi)133.125


ICAO: KHYA  IATA: HYA   Airport: Barnstable Municipal Airport-Boardman/Polando Field
City: Hyannis   State/Province: Massachusetts
Country: United States   Continent: North America
KHYA METAR Weather: KHYA 282156Z 14010KT 10SM CLR 22/17 A3019 RMK AO2 SLP223 T02220172 $
KHYA Flight Activity (FlightAware)
KHYA Airport Info   (AirNav) (iFlightPlanner)
KHYA VFR Sectional Chart   (iFlightPlanner) 
KHYA IFR Low Chart   (iFlightPlanner) 
ZBW ACK17/CAPE18
Feed Status: UP   Listeners: 0
Listen right in your browser - requires Flash (in browser, requires Flash)
Click here to listen with your own player (launches your MP3 player)
ZBW ACK17/CAPE18 Audio Archives
FacilityFrequency
Boston Center (ACK17 Sector)133.450
Boston Center (CAPE18 Sector)128.750
Emergency/Guard121.500

ZNY New York Center (JOBOC Sector)
Feed Status: UP   Listeners: 1
Listen right in your browser - requires Flash (in browser, requires Flash)
Click here to listen with your own player (launches your MP3 player)
ZNY New York Center (JOBOC Sector) Audio Archives
FacilityFrequency
New York Center (High Oceanic/JOBOC)125.925
New York Center (Oceanic)133.500


ICAO: KIPT  IATA: IPT   Airport: Williamsport Regional Airport
City: Williamsport   State/Province: Pennsylvania
Country: United States   Continent: North America
KIPT METAR Weather: KIPT 282154Z 17005KT 10SM CLR 29/21 A3012 RMK AO2 SLP195 T02890206
KIPT Flight Activity (FlightAware)
KIPT Airport Info   (AirNav) (iFlightPlanner)
KIPT VFR Sectional Chart   (iFlightPlanner) 
KIPT IFR Low Chart   (iFlightPlanner) 
KIPT Gnd/Twr/ZNY
Feed Status: UP   Listeners: 1
Listen right in your browser - requires Flash (in browser, requires Flash)
Click here to listen with your own player (launches your MP3 player)
KIPT Gnd/Twr/ZNY Audio Archives
FacilityFrequency
New York Center (Sector 91 Williamsport Low)124.900
Williamsport Ground121.900
Williamsport Tower119.100

ZNY Sector 49
Feed Status: UP   Listeners: 0
Listen right in your browser - requires Flash (in browser, requires Flash)
Click here to listen with your own player (launches your MP3 player)
ZNY Sector 49 Audio Archives
FacilityFrequency
New York Center (Sector 49 Stony Fork High)121.325

ZNY Sector 72
Feed Status: UP   Listeners: 0
Listen right in your browser - requires Flash (in browser, requires Flash)
Click here to listen with your own player (launches your MP3 player)
ZNY Sector 72 Audio Archives
FacilityFrequency
New York Center Sector 72 BURNI Hi [FL180-260]127.725

ZNY Sector 74
Feed Status: UP   Listeners: 0
Listen right in your browser - requires Flash (in browser, requires Flash)
Click here to listen with your own player (launches your MP3 player)
ZNY Sector 74 Audio Archives
FacilityFrequency
New York Center (Sector 74 Broadway Low)132.150
New York Center (Sector 92 Pottstown Low)124.625

ZNY Sector 75
Feed Status: UP   Listeners: 0
Listen right in your browser - requires Flash (in browser, requires Flash)
Click here to listen with your own player (launches your MP3 player)
ZNY Sector 75 Audio Archives
FacilityFrequency
New York Center (Sector 75 Milton High)128.575


ICAO: KJFK  IATA: JFK   Airport: John F Kennedy International Airport
City: New York   State/Province: New York
Country: United States   Continent: North America
KJFK METAR Weather: KJFK 282151Z 15009KT 10SM FEW250 27/16 A3018 RMK AO2 SLP221 T02670156 CHINO W $
KJFK Flight Activity (FlightAware)
KJFK Airport Info   (AirNav) (iFlightPlanner)
KJFK VFR Sectional Chart   (iFlightPlanner) 
KJFK IFR Low Chart   (iFlightPlanner) 
ZBW/ZNY/ZDC (JFK Area) #1
Feed Status: UP   Listeners: 0
Listen right in your browser - requires Flash (in browser, requires Flash)
Click here to listen with your own player (launches your MP3 player)
ZBW/ZNY/ZDC (JFK Area) #1 Audio Archives
FacilityFrequency
Boston Center (IGN20 Sector 20 Kingston High)125.575
New York Center (Sector 42 East Texas High)127.175
New York Center (Sector 56 Kennedy High backup)128.675
New York Center (Sector 56 Kennedy High backup)134.375
New York Center (Sector 56 Kennedy High)125.325
Washington Center (Sector 10 BAY High)132.275
Washington Center (Sector 12 High)126.875
Washington Center (Sector 18 DUPONT High)132.525
Washington Center (Sector 19 Woodstown High)125.450

ZBW/ZNY/ZDC (JFK Area) #2
Feed Status: UP   Listeners: 0
Listen right in your browser - requires Flash (in browser, requires Flash)
Click here to listen with your own player (launches your MP3 player)
ZBW/ZNY/ZDC (JFK Area) #2 Audio Archives
FacilityFrequency
New York Center (Sector 67 DIXIE Low)118.975
Washington Center (Sector 34 Yorktown High)120.750
Washington Center (Sector 54 Salisbury High)120.975
Washington Center (Sector 54 Snow Hill High)121.375
Washington Center (Sector 59 Sea Isle High)133.125

ZBW/ZNY/ZDC (JFK Area) #3
Feed Status: UP   Listeners: 0
Listen right in your browser - requires Flash (in browser, requires Flash)
Click here to listen with your own player (launches your MP3 player)
ZBW/ZNY/ZDC (JFK Area) #3 Audio Archives
FacilityFrequency
Emergency/Guard121.500
New York Center (Sector 66 MANTA Low)128.300
New York Center (Sector 82 Kathy High)126.025
New York Center (Sector 86 Atlantic Oceanic High)133.500
Washington Center (Sector 51 Casino Low)127.700

ZBW/ZNY/ZDC (JFK Area) #4
Feed Status: UP   Listeners: 0
Listen right in your browser - requires Flash (in browser, requires Flash)
Click here to listen with your own player (launches your MP3 player)
ZBW/ZNY/ZDC (JFK Area) #4 Audio Archives
FacilityFrequency
New York Center (Sector 55 Yardley Low)134.600
New York Center (Sector 56 Kennedy High backup)128.675
New York Center (Sector 9 Westminster High)134.325
Washington Center (Sector 4 Pinion High)133.975
Washington Center (Sector 58 Coyle High)121.025


ICAO: KLNS  IATA: LNS   Airport: Lancaster Airport
City: Lancaster   State/Province: Pennsylvania
Country: United States   Continent: North America
KLNS METAR Weather: KLNS 282153Z 19006KT 10SM CLR 30/18 A3017 RMK AO2 SLP213 T03000178
KLNS Flight Activity (FlightAware)
KLNS Airport Info   (AirNav) (iFlightPlanner)
KLNS VFR Sectional Chart   (iFlightPlanner) 
KLNS IFR Low Chart   (iFlightPlanner) 
ZNY NY Center (MDT)
Feed Status: UP   Listeners: 0
Listen right in your browser - requires Flash (in browser, requires Flash)
Click here to listen with your own player (launches your MP3 player)
ZNY NY Center (MDT) Audio Archives
FacilityFrequency
NY Center (MDT sector)132.200


ICAO: KMDT  IATA: MDT   Airport: Harrisburg International Airport
City: Harrisburg   State/Province: Pennsylvania
Country: United States   Continent: North America
KMDT METAR Weather: KMDT 282156Z 13008KT 10SM FEW060 SCT250 31/19 A3014 RMK AO2 SLP205 T03110194
KMDT Flight Activity (FlightAware)
KMDT Webcam: (Airport Webcams)
KMDT Airport Info   (AirNav) (iFlightPlanner)
KMDT VFR Sectional Chart   (iFlightPlanner) 
KMDT IFR Low Chart   (iFlightPlanner) 
ZNY NY Center (HAR)
Feed Status: UP   Listeners: 0
Listen right in your browser - requires Flash (in browser, requires Flash)
Click here to listen with your own player (launches your MP3 player)
ZNY NY Center (HAR) Audio Archives
FacilityFrequency
NY Center (HAR sector)133.475

ZNY NY Center (JOLIET)
Feed Status: UP   Listeners: 0
Listen right in your browser - requires Flash (in browser, requires Flash)
Click here to listen with your own player (launches your MP3 player)
ZNY NY Center (JOLIET) Audio Archives
FacilityFrequency
NY Center (JOLIET sector)132.500
NY Center (JOLIET sector)133.675


ICAO: KNEL  IATA: NEL   Airport: Lakehurst Maxfield Field Joint Base McGuire
City: Lakehurst   State/Province: New Jersey
Country: United States   Continent: North America
KNEL METAR Weather: KNEL 282100Z AUTO 15010KT 10SM CLR 29/17 A3017 RMK AO2 SLP216 T02890172 58016
KNEL Flight Activity (FlightAware)
KNEL Airport Info   (AirNav) (iFlightPlanner)
KNEL VFR Sectional Chart   (iFlightPlanner) 
KNEL IFR Low Chart   (iFlightPlanner) 
KNEL/KWRI/ZNY
Feed Status: UP   Listeners: 0
Listen right in your browser - requires Flash (in browser, requires Flash)
Click here to listen with your own player (launches your MP3 player)
KNEL/KWRI/ZNY Audio Archives
FacilityFrequency
Emergency/Guard121.500
Lakehurst Ground118.375
Lakehurst Ground307.050
Lakehurst Tower127.775
Lakehurst Tower340.200
Lakehurst Tower360.200
McGuire Approach124.150
McGuire Arrival120.250
McGuire Tower118.650
McGuire Tower255.600
McGuire Tower257.800
NEL Army Ops255.700
New York Center (DIXIE Sector Low)118.975
New York Center (DIXIE Sector Low)307.800
New York Center (Kennedy Sector High)125.325
New York Center (Kennedy Sector High)282.300
WRI 108 ANG Command Post251.200
WRI 108 ANG Command Post321.000
WRI Army Ops139.300
WRI Army Ops265.600
WRI Army Ops41.350
WRI Army Ops Command Post319.400
WRI Army Ops Command Post (backup)349.400
WRI Pilot to Dispatch134.100
WRI Pilot to Dispatch372.200
WRI USMC HMH 772 Ops283.000
WRI USMC HMLA 773 Ops264.200


ICAO: KSWF  IATA: SWF   Airport: Stewart International Airport
City: Newburgh   State/Province: New York
Country: United States   Continent: North America
KSWF METAR Weather: KSWF 282045Z 24008KT 20SM FEW080 30/20 A3018
KSWF Flight Activity (FlightAware)
KSWF Airport Info   (AirNav) (iFlightPlanner)
KSWF VFR Sectional Chart   (iFlightPlanner) 
KSWF IFR Low Chart   (iFlightPlanner) 
ZNY NY Center (HUO)
Feed Status: UP   Listeners: 0
Listen right in your browser - requires Flash (in browser, requires Flash)
Click here to listen with your own player (launches your MP3 player)
ZNY NY Center (HUO) Audio Archives
FacilityFrequency
New York Center (Huguenot Sector)132.600

Sponsored by LiveATC.net and Poughkeepsie Pilots Association

ICAO: KWRI  IATA: WRI   Airport: McGuire Field (Joint Base Mc Guire Dix Lakehurst) Airport
City: Wrightstown   State/Province: New Jersey
Country: United States   Continent: North America
KWRI METAR Weather: KWRI 282058Z 11010KT 10SM CLR 30/19 A3014 RMK AO2A SLP205 T03000193 57021
KWRI Flight Activity (FlightAware)
KWRI Airport Info   (AirNav) (iFlightPlanner)
KWRI VFR Sectional Chart   (iFlightPlanner) 
KWRI IFR Low Chart   (iFlightPlanner) 
KNEL/KWRI/ZNY
Feed Status: UP   Listeners: 0
Listen right in your browser - requires Flash (in browser, requires Flash)
Click here to listen with your own player (launches your MP3 player)
KNEL/KWRI/ZNY Audio Archives
FacilityFrequency
Emergency/Guard121.500
Lakehurst Ground118.375
Lakehurst Ground307.050
Lakehurst Tower127.775
Lakehurst Tower340.200
Lakehurst Tower360.200
McGuire Approach124.150
McGuire Arrival120.250
McGuire Tower118.650
McGuire Tower255.600
McGuire Tower257.800
NEL Army Ops255.700
New York Center (DIXIE Sector Low)118.975
New York Center (DIXIE Sector Low)307.800
New York Center (Kennedy Sector High)125.325
New York Center (Kennedy Sector High)282.300
WRI 108 ANG Command Post251.200
WRI 108 ANG Command Post321.000
WRI Army Ops139.300
WRI Army Ops265.600
WRI Army Ops41.350
WRI Army Ops Command Post319.400
WRI Army Ops Command Post (backup)349.400
WRI Pilot to Dispatch134.100
WRI Pilot to Dispatch372.200
WRI USMC HMH 772 Ops283.000
WRI USMC HMLA 773 Ops264.200


ICAO: TXKF  IATA: BDA   Airport: L F Wade International Airport
City: Hamilton
Country: Bermuda   Continent: North America
TXKF METAR Weather: TXKF 282055Z 11007KT 080V140 9999 FEW020 FEW300 29/24 Q1018
TXKF Flight Activity (FlightAware)
ZNY Bermuda Sector
Feed Status: UP   Listeners: 1
Listen right in your browser - requires Flash (in browser, requires Flash)
Click here to listen with your own player (launches your MP3 player)
ZNY Bermuda Sector Audio Archives
FacilityFrequency
New York Approach (Bermuda Sector) 119.100
New York Center (Bermuda Sector)128.500


NOTICE

Unauthorized use prohibited. See LiveATC.net Terms of Service


Find LiveATC Audio Streams


Airport/ARTCC Code

Frequency
(e.g., 124.400, 128.75)
Site-wide search

Browse LiveATC Feeds
LiveATC Coverage Map
Top 50 LiveATC Feeds
Bad Weather Areas

LiveATC FAQ
Offer a LiveATC Feed
Contact LiveATC.net
Press Inquiries

LiveATC on iPhone
LiveATC on Android

Windows Phone
Windows 8/10

LiveATC Mobile
(Mobile browser)

ATC Audio Archives
Interesting Recordings

LiveATC Forums


Home Page
About LiveATC.net
Make a Donation
LiveATC Store

Terms of Use
Privacy Policy

Canadian Air Freqs

AIRMETs/SIGMETs

FAA Airport Status
Nat'l Airspace Status
Arrival Demand Charts


Server Software By:
Icecast.org
Liquidsoap